Theta_e
353 360 365 364 363 362 362 361 363 364 365 364 363 363 362 362 362 362 363 363 362 362 360 359 361 362 361 360 359 357 357 356 356 358 357 355 354 354 356 355 354 351 356
356 361 364 364 363 361 360 360 361 363 364 364 364 363 363 362 362 362 361 361 361 360 359 358 358 358 360 360 360 358 357 355 353 353 353 353 354 354 355 355 356 353 357
355 358 360 364 362 361 361 361 360 360 361 362 363 363 362 362 362 361 361 360 359 359 358 358 358 358 359 359 361 361 360 358 357 356 355 347 341 358 356 356 358 358 358
354 356 360 364 363 361 361 361 360 360 360 359 359 359 360 359 360 359 359 358 357 357 357 357 358 358 359 360 361 362 361 361 359 357 351 347 345 356 360 360 361 361 358
355 359 359 363 363 362 361 362 361 361 360 360 359 358 357 356 356 355 356 357 356 356 357 358 358 360 360 360 361 361 361 362 360 357 347 343 341 349 361 361 362 362 360
355 359 363 364 363 363 362 362 361 361 361 361 360 359 359 358 357 357 357 356 355 354 355 356 359 360 361 362 361 361 361 361 359 351 348 345 345 354 361 362 362 362 362
354 358 361 363 362 362 362 361 362 361 360 360 360 359 359 359 359 359 359 359 358 357 357 357 359 359 360 362 361 361 361 359 353 349 347 345 342 354 360 361 362 362 362
351 354 354 361 362 362 361 361 360 359 356 352 349 351 353 356 357 359 359 360 360 360 360 360 360 360 359 358 359 360 361 360 356 349 349 346 348 353 361 361 360 358 358
350 352 355 358 358 358 356 354 353 351 347 345 347 350 351 348 350 353 357 358 359 359 359 359 359 359 359 359 358 358 358 360 354 354 352 348 351 354 359 361 359 356 353
350 350 347 341 336 334 339 351 349 349 347 346 348 348 346 344 347 348 346 352 353 356 356 356 356 356 357 357 358 357 358 358 352 351 352 349 353 355 358 360 358 354 352
345 339 334 328 323 327 332 343 349 351 349 346 342 345 335 331 330 332 343 345 346 347 347 351 352 353 354 355 356 358 359 353 350 348 348 351 353 356 357 359 356 354 355
324 327 328 328 327 323 332 332 329 331 329 332 331 330 330 328 334 334 338 342 342 345 343 343 343 342 337 339 345 348 351 353 350 348 347 351 354 357 357 359 356 356 356
323 327 329 329 328 325 325 325 325 324 325 327 330 329 328 327 329 327 326 326 327 334 327 329 327 328 328 329 330 329 331 342 342 348 349 352 353 356 358 359 358 357 356
326 327 329 330 329 327 327 326 323 321 322 323 328 327 326 324 325 325 324 323 325 324 323 322 323 325 326 328 327 328 329 330 331 334 347 354 354 355 356 359 359 357 357
327 329 330 332 329 328 326 326 325 321 322 323 323 324 326 323 321 325 321 323 320 323 320 319 319 323 322 324 326 326 327 327 327 330 332 348 350 353 357 359 358 357 357
328 329 330 330 331 326 327 322 324 319 321 323 322 324 325 321 320 322 319 321 320 321 320 319 319 321 319 321 321 322 322 324 327 328 330 333 346 349 352 354 356 355 357
328 329 328 328 327 324 323 325 323 319 321 321 320 324 324 321 321 323 320 319 320 321 320 318 320 320 319 319 319 320 320 322 324 327 327 327 329 340 350 348 350 354 357
326 326 327 327 324 324 321 325 325 325 323 321 322 322 324 323 322 321 320 320 321 322 318 318 316 317 317 317 317 316 318 320 320 322 326 326 326 331 337 349 351 352 354
327 326 323 324 323 325 324 324 321 321 321 320 320 319 322 323 321 322 321 321 321 316 316 315 316 315 315 316 317 318 319 317 320 323 322 321 324 327 332 339 348 349 350
326 324 324 324 323 324 321 320 319 318 319 319 318 319 319 318 322 317 316 317 316 315 312 312 312 315 315 315 317 315 316 316 319 319 320 324 325 329 335 342 344 348 349
325 324 323 322 322 322 319 317 317 316 316 317 318 317 317 318 319 316 315 314 314 312 312 313 313 312 310 311 310 311 313 314 314 315 318 320 323 324 331 338 335 336 341
322 321 322 323 322 320 318 320 318 314 314 316 314 314 316 317 319 316 314 314 313 311 310 309 310 310 310 309 309 308 304 308 312 314 316 319 320 331 331 337 334 334 336
320 321 321 321 321 320 318 316 314 313 311 310 311 311 314 317 317 314 313 313 313 313 309 309 310 308 307 309 309 306 303 302 308 312 312 316 321 324 328 329 333 334 332
320 320 320 320 320 319 316 314 312 309 307 309 309 309 312 314 312 314 313 312 310 310 308 309 312 310 310 308 310 311 310 308 305 303 308 313 318 322 325 327 330 329 330
317 317 318 319 318 318 316 314 311 309 310 310 308 309 308 309 311 313 311 310 310 310 310 310 312 312 312 310 309 309 309 311 309 305 304 308 314 318 318 322 319 324 328
315 314 318 318 319 317 315 314 312 310 309 308 308 305 306 307 308 308 310 309 309 310 311 312 312 310 309 311 311 311 311 309 308 308 307 307 309 313 315 320 317 321 321
Wind_Speed
6 3 13 14 14 13 13 14 14 14 12 12 11 11 10 10 10 9 9 9 8 7 7 6 5 5 6 6 6 6 6 7 8 7 5 2 3 4 7 8 7 8 10
11 5 12 13 13 13 13 12 13 13 12 12 11 10 10 9 9 8 8 7 6 6 5 4 4 5 5 5 5 6 7 7 7 7 8 8 5 5 6 8 9 10 10
12 6 11 13 13 13 12 11 12 12 12 11 10 10 9 9 8 8 7 5 4 3 3 3 3 4 5 5 5 4 4 5 6 6 8 5 5 11 11 11 11 13 12
12 8 9 12 13 13 13 11 11 12 11 10 10 9 8 8 7 6 5 4 3 2 3 3 5 6 7 7 7 7 7 6 7 9 5 7 7 11 17 13 11 11 12
13 10 10 12 12 13 12 10 10 11 10 9 8 8 7 6 5 5 3 3 3 4 5 6 6 6 7 8 8 9 8 9 10 10 6 7 7 11 16 15 13 12 12
14 10 11 12 12 11 11 10 10 10 9 8 7 6 5 4 2 2 2 2 4 4 6 7 7 8 8 9 9 10 10 11 13 6 7 10 11 8 16 18 18 17 14
12 10 9 12 13 12 11 10 10 9 8 7 7 6 4 3 4 4 4 3 4 6 8 9 9 9 10 10 12 12 12 14 9 6 8 9 10 10 19 19 19 19 17
8 9 9 13 12 11 10 10 9 8 8 7 6 3 3 4 5 6 6 6 8 8 9 10 11 12 13 13 13 14 14 16 12 7 9 9 13 12 18 20 20 19 18
12 10 9 8 11 12 10 10 9 8 6 5 7 11 5 5 7 8 8 8 9 10 10 11 13 14 15 15 16 16 16 18 11 8 11 8 13 16 18 23 23 20 17
12 13 11 6 6 8 6 9 9 8 7 6 15 16 17 16 13 10 14 8 12 11 12 13 14 14 16 16 16 18 18 19 12 11 9 10 18 21 18 21 21 19 17
11 10 6 1 4 7 7 5 4 7 4 7 11 14 9 6 9 11 15 20 19 19 18 15 14 15 14 14 15 18 19 8 10 9 8 19 22 23 23 19 22 20 19
13 10 9 6 7 4 5 5 2 5 6 6 6 7 6 7 7 11 12 17 19 17 15 18 18 15 12 5 5 10 4 9 8 9 8 21 23 24 24 20 23 20 19
13 12 10 8 7 7 5 3 3 4 4 4 7 6 6 5 3 4 4 4 5 12 6 9 9 8 11 9 7 6 6 6 5 7 11 20 23 23 25 23 25 24 20
15 11 9 8 8 8 5 5 4 4 4 3 3 5 5 4 5 4 4 5 5 5 6 5 5 8 11 11 11 12 12 10 7 5 8 18 15 12 23 23 23 23 21
15 12 9 8 7 6 6 4 4 4 4 2 3 4 4 4 4 3 4 5 5 5 5 5 6 6 6 9 10 13 15 14 12 7 6 16 19 10 14 20 21 21 18
14 11 8 8 6 5 4 5 2 4 4 4 3 4 5 3 2 1 3 4 4 3 5 5 9 8 6 5 9 10 13 14 15 13 7 6 18 21 18 17 19 23 24
10 8 9 7 6 5 4 5 3 4 5 4 5 4 3 1 2 0 2 3 4 4 5 6 6 6 7 9 10 9 10 13 13 14 12 7 8 18 24 23 23 33 27
11 10 8 7 7 5 5 5 4 5 4 5 5 3 4 5 3 2 3 3 3 4 4 4 5 5 8 9 10 11 11 8 13 14 12 10 10 10 14 21 29 30 23
11 10 9 8 8 8 7 5 6 7 6 5 5 5 8 8 8 5 5 4 5 4 4 4 4 7 8 9 10 11 10 11 11 11 13 17 14 12 11 12 22 31 26
13 11 10 7 7 7 5 6 5 5 5 5 5 6 10 8 6 5 5 5 5 3 4 4 6 5 4 6 9 11 10 11 10 11 11 10 13 15 10 9 6 8 15
12 12 10 8 5 5 4 3 4 4 4 5 6 11 11 10 11 6 4 5 5 4 4 5 7 5 5 6 9 9 10 13 14 7 6 12 12 14 12 7 3 3 5
10 11 10 9 8 4 2 1 2 1 2 1 4 6 6 11 8 11 9 6 6 5 6 5 5 7 6 4 5 9 8 8 9 6 8 8 12 9 13 5 1 0 4
11 11 9 9 9 6 5 2 0 1 1 1 3 4 3 5 6 6 7 6 8 5 5 5 5 6 9 7 6 4 6 5 12 7 9 4 9 9 8 5 5 3 5
9 10 10 9 9 7 6 3 3 3 2 2 2 3 5 5 6 6 6 5 6 5 6 5 7 6 6 8 7 5 6 5 6 10 2 6 8 9 7 5 3 3 3
8 10 8 8 8 6 5 4 2 1 2 1 2 4 5 5 6 5 6 8 9 7 6 7 7 9 7 7 6 6 5 6 5 3 9 9 8 3 4 9 10 6 6
4 4 7 9 7 5 5 5 3 2 3 5 4 4 4 4 4 5 6 6 9 9 8 8 7 7 7 6 7 5 6 4 5 5 4 8 5 4 1 2 5 4 4
Wind_Direction
93 97 96 91 85 82 76 80 81 76 74 77 78 77 76 71 74 71 69 68 69 72 80 77 58 42 29 30 39 35 27 19 13 16 17 43 110 112 121 126 135 128 135
118 109 92 89 84 79 77 75 79 80 77 76 77 79 75 75 72 70 69 60 49 52 52 43 26 12 9 4 8 6 4 3 0 351 336 321 270 204 184 169 152 136 144
115 116 89 81 79 79 75 71 69 71 73 72 68 68 70 70 72 68 68 64 55 42 22 3 336 315 309 314 321 320 319 318 318 314 305 284 265 230 211 198 172 155 157
111 99 88 87 81 77 73 72 74 74 73 71 74 68 66 66 66 70 65 65 47 9 345 328 316 307 304 300 298 300 300 297 295 294 293 282 271 256 204 201 197 178 167
95 87 94 95 93 88 86 80 77 76 77 77 75 74 68 62 61 54 48 27 360 338 322 312 304 299 292 291 291 289 283 281 283 287 284 276 271 286 190 192 198 195 187
102 105 101 94 91 93 89 85 81 78 75 74 73 65 61 58 54 38 345 344 325 314 307 301 297 294 289 281 275 273 274 275 280 274 273 271 274 229 192 194 197 196 193
93 96 95 98 98 96 91 86 82 80 79 68 57 46 29 358 335 322 302 304 292 291 286 284 278 272 269 267 268 266 262 266 270 264 269 276 278 212 202 205 203 199 194
103 124 110 109 103 97 96 93 90 89 81 76 70 41 3 330 320 312 307 300 277 268 270 272 270 269 268 264 260 259 256 258 262 256 253 261 270 237 212 208 211 206 196
131 138 116 117 119 119 122 120 120 121 111 70 36 19 11 330 308 295 289 288 280 274 274 269 267 266 265 263 263 263 259 257 254 248 252 255 262 273 227 212 212 210 199
170 129 126 138 148 131 140 146 143 141 130 68 46 38 23 18 18 358 19 332 338 308 293 283 279 270 262 262 265 265 265 266 259 258 257 256 251 259 263 224 217 211 204
115 93 89 112 188 141 136 162 162 138 105 73 52 46 26 17 15 17 6 8 357 350 348 340 325 313 313 297 285 274 268 261 254 247 246 253 254 253 256 224 215 211 208
109 106 103 109 63 126 117 121 173 81 73 71 67 56 35 27 26 14 9 356 348 342 345 6 2 1 351 324 304 308 292 257 245 250 248 248 248 246 249 229 218 213 213
97 76 54 45 53 66 85 104 59 53 39 72 72 70 59 35 17 14 2 348 333 340 2 3 351 346 337 336 325 315 307 296 284 259 254 254 253 257 253 233 219 210 211
88 83 68 47 41 41 38 40 50 52 25 44 83 77 70 39 16 3 358 338 342 349 358 349 334 332 337 330 335 329 328 332 326 318 295 270 267 292 301 252 216 211 208
89 82 70 56 49 39 39 30 57 38 24 44 70 69 89 61 16 357 349 340 337 345 343 334 332 326 323 325 336 335 330 325 318 310 309 301 291 266 259 251 223 224 216
97 94 87 61 49 39 15 36 53 34 13 15 20 83 87 83 332 275 333 320 336 328 326 323 334 315 309 334 327 323 322 316 313 310 303 318 302 285 250 241 240 232 226
104 102 100 90 52 42 14 1 31 11 19 17 14 83 108 224 346 237 295 308 298 320 335 327 317 331 336 326 316 313 309 302 304 305 308 302 300 301 273 253 239 244 230
103 100 83 66 30 15 7 0 23 24 30 15 14 27 347 332 343 350 301 288 315 352 328 333 327 331 324 320 312 311 305 291 308 303 299 311 302 289 286 271 253 243 250
111 99 81 60 22 351 7 19 24 24 24 1 4 355 353 9 351 2 345 335 358 334 336 333 320 311 313 311 307 309 307 308 300 305 310 303 305 293 282 273 263 247 240
114 108 107 86 31 11 17 16 19 21 6 352 342 17 353 351 11 1 342 341 323 328 322 318 305 301 299 309 308 306 300 300 302 302 304 313 320 316 296 258 242 232 226
114 116 115 102 66 52 20 12 24 13 347 340 13 351 350 1 338 346 338 323 322 338 326 312 308 298 305 297 304 303 303 296 286 298 314 322 317 311 306 260 204 161 173
133 131 122 126 114 104 72 63 96 337 321 11 350 326 354 347 343 344 345 337 330 322 328 335 320 310 306 302 302 307 308 309 283 327 311 311 304 319 312 295 200 191 157
136 132 134 141 139 146 141 135 99 329 14 5 317 330 341 323 333 352 350 352 346 352 318 298 289 294 304 299 272 256 303 295 320 315 311 309 334 324 314 335 68 73 124
144 143 154 158 146 146 145 138 178 175 198 207 266 300 308 330 349 355 345 342 316 303 295 300 304 292 285 298 305 272 265 273 304 315 2 322 331 328 351 355 350 67 99
153 172 159 143 126 133 153 151 157 238 253 273 338 337 323 353 325 340 338 337 318 311 304 299 302 304 297 287 282 290 288 283 258 269 317 325 321 324 353 52 50 20 71
151 80 106 101 122 166 171 168 147 251 306 21 357 344 342 316 316 330 330 324 320 312 311 313 310 309 303 311 309 295 301 305 319 314 305 314 291 280 267 317 78 78 109